Wind_Speed
11 12 13 15 17 18 19 19 20 20 19 20 21 19 17 15 11 3 3 8 14 16 19 13 12 12 12 15 13 12 12 10 5 4 12 14 11 7 6 10 4 5 1 20 20
11 12 13 15 17 18 20 20 20 20 19 18 19 18 16 14 6 7 10 13 15 19 17 17 15 14 16 16 13 14 13 5 9 6 1 12 11 12 9 8 9 7 13 19 21
12 12 14 16 19 19 20 21 20 20 19 17 18 16 14 13 5 3 5 9 13 19 13 13 13 15 18 15 16 16 16 10 7 3 6 9 11 10 9 11 12 13 16 19 20
12 13 15 17 18 20 22 22 22 19 19 17 16 14 12 8 2 0 4 10 16 18 12 13 14 18 18 15 17 15 16 1 6 3 7 6 15 7 2 8 11 16 18 21 21
13 13 15 17 20 21 23 24 23 20 18 16 14 12 10 8 1 3 8 12 15 12 15 15 17 19 15 15 16 14 14 8 5 3 8 5 11 7 7 6 13 18 19 19 19
14 13 15 18 20 22 23 24 23 20 17 15 12 10 7 14 2 4 10 11 10 11 14 15 13 19 14 14 14 16 19 9 7 7 9 11 8 6 11 9 16 18 18 18 19
15 14 15 18 20 22 24 25 22 20 17 15 10 9 10 4 5 8 11 10 10 11 13 14 10 12 13 10 14 14 14 13 12 12 7 14 14 13 16 13 17 18 18 18 18
15 14 15 17 20 23 24 24 22 19 16 13 8 6 10 3 7 10 11 10 10 10 10 11 9 13 15 14 10 14 15 16 16 10 9 14 18 18 14 16 17 18 18 19 20
15 14 14 17 20 23 24 23 19 15 14 9 4 5 8 4 10 12 11 10 11 12 10 10 11 15 16 12 13 15 14 18 11 10 8 15 11 16 19 18 18 19 20 21 21
16 14 13 16 19 23 25 19 14 10 5 5 7 7 10 10 12 12 11 9 13 14 13 13 12 11 12 15 15 18 19 17 15 14 10 14 15 18 17 18 17 19 21 21 22
17 14 13 14 17 20 24 17 8 5 8 17 5 11 5 7 11 12 13 12 14 16 15 18 13 14 18 18 19 13 14 20 9 8 17 17 15 11 19 17 17 20 21 22 23
17 14 12 13 15 15 13 9 5 7 13 16 16 14 7 6 12 14 15 15 15 16 18 10 16 15 14 8 12 12 16 16 13 14 8 16 18 16 17 17 18 17 19 22 24
17 13 11 11 12 10 7 6 8 10 9 8 11 20 17 15 15 20 20 19 14 17 17 16 7 15 4 10 12 15 18 15 18 10 13 17 19 14 13 13 19 19 18 22 24
17 13 10 7 6 8 4 10 10 7 6 13 12 11 16 18 16 15 21 18 12 14 12 13 15 6 10 13 12 15 15 17 18 12 11 18 15 17 17 17 17 16 20 23 25
16 13 9 7 7 7 7 11 9 4 6 15 12 12 17 20 16 13 19 17 14 10 4 14 11 11 14 14 13 14 12 11 17 15 15 23 13 13 12 19 18 21 26 24 25
17 13 9 6 7 8 10 10 6 7 6 9 10 13 17 23 13 23 19 12 12 9 13 9 4 10 16 12 6 10 9 11 15 16 18 21 20 14 13 16 16 21 23 28 27
17 14 11 10 6 8 9 6 7 10 6 9 15 15 19 15 15 14 19 17 11 9 13 14 13 10 10 11 10 11 11 9 11 12 16 19 21 19 19 19 15 14 20 24 25
17 14 13 10 9 9 6 8 9 10 8 5 1 9 14 19 17 17 19 16 17 15 15 12 14 16 10 14 12 15 14 12 13 12 13 22 20 17 16 9 11 23 23 21 18
15 13 12 10 9 6 10 11 11 12 5 3 12 11 14 14 11 15 15 17 17 12 13 6 5 4 6 12 13 12 15 16 17 17 14 13 11 4 10 9 12 19 18 14 13
12 11 15 14 8 7 9 16 15 1 4 9 13 15 15 14 12 13 14 9 6 13 12 5 4 9 9 9 11 14 6 9 9 14 15 14 13 10 11 10 9 11 9 3 6
13 13 13 12 9 12 11 16 16 4 6 8 8 6 11 17 15 16 14 8 5 12 8 9 8 9 8 11 15 8 12 12 13 10 12 9 7 13 12 10 11 13 18 15 9
15 11 10 14 13 15 13 18 4 8 11 7 6 10 5 3 13 13 9 5 4 7 13 7 5 11 12 3 5 9 13 9 7 9 11 11 13 17 10 5 13 17 20 12 9
16 14 9 13 10 12 14 10 9 12 11 9 7 6 5 9 7 4 13 7 6 7 4 5 7 9 13 11 9 9 9 7 4 7 12 11 9 9 11 11 14 11 13 11 4
20 7 10 14 19 11 14 12 15 14 11 9 5 4 8 5 6 7 13 5 6 5 3 2 3 11 7 5 9 6 5 6 4 6 11 11 10 10 11 15 16 20 15 9 3
8 11 12 11 13 11 10 9 14 11 14 15 9 10 10 9 12 13 14 11 10 6 4 3 6 9 11 8 11 11 11 10 12 12 12 14 16 14 18 4 8 9 9 4 3
10 5 7 4 15 13 8 12 14 14 13 13 12 12 5 8 8 11 14 12 9 8 5 2 5 7 12 14 13 13 11 11 13 14 15 14 13 18 19 21 25 14 12 2 24
5 4 8 12 9 11 12 12 12 9 11 15 17 13 11 9 3 7 7 5 4 4 5 3 6 4 12 11 1 10 7 4 7 11 13 12 18 18 16 16 13 12 14 20 21
Wind_Direction
331 333 337 339 339 340 340 339 336 336 334 333 336 337 334 331 322 307 278 232 220 188 176 182 195 207 213 226 232 241 263 221 140 191 106 126 134 100 81 124 88 67 269 154 162
322 327 330 333 334 336 337 336 335 333 333 331 334 333 334 331 304 250 261 240 201 182 173 183 191 196 209 220 217 237 241 66 26 19 180 137 147 119 176 140 116 117 108 146 160
311 318 322 327 330 332 333 331 333 332 332 330 332 330 335 327 277 155 254 184 180 173 177 190 198 201 221 218 213 226 262 92 146 52 280 140 135 116 229 168 139 148 151 158 167
301 310 317 322 324 327 331 328 329 330 328 329 331 329 332 321 318 240 160 162 159 156 192 204 212 208 228 212 219 248 254 268 81 119 207 202 117 139 300 40 105 148 156 161 169
286 299 310 318 323 327 326 325 325 325 324 326 327 327 332 258 46 176 157 151 165 178 195 202 205 209 220 209 215 227 252 220 207 237 243 182 153 165 163 106 132 148 158 166 173
282 293 306 314 320 325 325 323 323 319 317 320 318 324 311 265 121 206 167 173 177 194 202 205 210 212 251 237 221 217 263 215 232 237 200 235 159 182 147 146 147 159 166 173 179
278 290 304 313 319 321 323 324 322 313 310 309 304 313 279 278 166 176 181 188 192 196 207 207 224 205 227 243 234 258 247 239 236 233 212 237 191 186 150 168 160 172 175 179 187
272 286 301 311 317 319 323 324 320 310 302 298 290 296 272 167 182 184 185 196 202 201 205 202 215 232 255 234 219 226 239 236 219 198 205 213 217 173 160 176 172 183 182 186 192
268 283 299 308 316 319 324 326 320 306 296 284 287 233 237 193 182 188 191 196 198 194 192 202 217 226 217 242 226 212 225 230 193 195 208 216 224 181 166 187 178 189 190 195 195
268 278 296 308 317 323 328 333 321 315 300 282 243 245 220 205 172 182 187 203 189 186 193 205 213 219 235 215 223 211 223 224 241 167 229 212 258 139 172 186 193 191 201 200 201
262 275 290 307 319 330 340 336 313 207 255 271 303 250 145 161 178 186 193 188 189 195 206 206 217 214 219 224 244 251 257 224 224 214 191 239 223 182 170 204 209 192 202 209 211
256 267 284 305 322 331 358 1 11 326 299 266 248 233 233 197 194 194 184 197 195 206 214 185 233 239 236 252 242 277 258 268 241 201 207 229 244 238 185 196 218 212 205 213 214
250 261 276 303 325 351 335 354 334 321 267 273 218 219 206 204 216 183 191 212 200 216 200 228 234 224 189 223 242 238 246 240 258 179 231 253 246 233 244 257 213 219 232 218 218
243 251 267 294 307 313 284 332 327 307 268 161 189 202 186 195 218 194 198 204 211 230 207 233 254 242 209 240 224 245 225 255 260 242 223 223 254 235 226 239 249 249 235 240 230
236 242 252 271 278 311 295 321 315 292 258 152 134 147 189 198 175 195 193 215 236 216 219 225 222 196 225 229 227 255 286 234 254 256 252 262 229 264 252 213 229 242 251 240 238
229 233 242 298 284 275 309 306 298 233 242 153 146 177 180 208 176 168 188 222 246 219 225 281 227 222 237 241 242 262 249 252 251 246 245 246 261 241 234 240 222 240 246 254 244
223 227 231 236 230 291 307 278 232 244 113 155 179 171 184 187 191 171 190 198 205 204 221 218 202 226 256 205 200 231 224 224 220 226 248 248 246 252 262 271 258 246 255 269 265
218 224 230 235 248 286 288 235 247 213 224 44 269 191 199 176 202 192 195 205 218 222 268 202 202 196 189 234 208 205 240 254 256 240 251 221 235 251 251 308 274 292 286 280 282
215 220 236 241 227 251 245 227 220 258 5 233 188 202 204 183 199 194 216 213 198 221 254 213 230 117 220 218 249 226 225 244 274 281 277 278 307 247 247 240 229 244 251 260 246
206 215 226 208 213 211 235 249 253 60 344 251 247 210 181 190 207 200 190 201 198 192 244 299 208 188 171 241 247 266 308 236 233 261 274 277 253 263 192 210 234 287 289 35 51
206 206 178 203 188 214 232 231 229 194 264 268 258 228 253 182 208 200 174 145 223 191 213 242 258 156 171 216 237 184 234 243 278 302 304 285 255 57 24 347 331 314 300 337 17
201 220 170 174 204 223 232 233 21 249 214 253 295 302 261 188 216 196 144 144 183 175 208 209 256 251 213 79 6 322 314 324 248 235 244 273 289 311 321 331 318 311 297 353 356
211 190 172 183 224 227 218 236 217 232 220 213 227 264 270 217 231 171 96 92 167 207 43 146 220 241 242 195 211 232 238 266 273 315 277 300 301 348 345 313 327 318 331 324 338
214 185 163 205 244 292 202 208 216 227 227 212 265 233 205 191 239 160 123 130 142 104 54 300 265 279 103 240 266 266 258 210 223 283 284 255 311 318 333 27 350 349 356 308 126
225 209 183 187 213 217 261 218 208 191 216 206 221 240 208 206 189 182 148 150 157 150 188 306 266 275 292 263 247 271 274 284 267 246 253 290 304 316 338 72 336 14 331 317 102
218 231 178 137 204 202 166 224 213 207 190 202 226 196 212 230 214 160 148 186 175 175 176 158 283 293 291 289 278 278 274 271 272 282 281 289 267 15 359 358 347 1 330 91 71
204 276 241 134 189 201 198 222 213 214 206 223 203 229 201 221 42 3 103 95 109 172 175 241 305 264 277 287 285 263 270 339 354 338 332 323 355 354 337 343 340 340 59 81 96
Height
1544 1543 1541 1538 1536 1534 1531 1527 1524 1521 1517 1514 1510 1507 1504 1501 1498 1496 1497 1497 1496 1497 1500 1504 1506 1507 1507 1504 1502 1499 1485 1472 1469 1476 1473 1482 1484 1494 1500 1504 1506 1510 1510 1516 1525
1543 1541 1539 1537 1535 1533 1530 1526 1522 1520 1516 1513 1509 1506 1503 1500 1497 1497 1496 1494 1495 1497 1501 1504 1505 1506 1504 1501 1499 1493 1478 1469 1472 1474 1473 1478 1483 1492 1496 1502 1508 1513 1514 1519 1525
1541 1540 1538 1536 1533 1531 1528 1525 1521 1518 1515 1511 1508 1505 1502 1498 1497 1494 1493 1493 1495 1498 1503 1505 1505 1505 1500 1496 1494 1490 1480 1472 1479 1482 1480 1476 1483 1491 1491 1491 1500 1511 1516 1520 1525
1539 1538 1536 1534 1532 1529 1526 1523 1519 1516 1513 1510 1507 1504 1501 1498 1490 1494 1493 1494 1496 1499 1504 1504 1504 1503 1496 1492 1490 1488 1480 1480 1480 1484 1482 1477 1482 1492 1490 1496 1502 1509 1515 1520 1524
1539 1537 1535 1533 1531 1527 1524 1521 1517 1514 1511 1508 1506 1503 1501 1498 1493 1494 1495 1496 1498 1500 1502 1503 1502 1500 1494 1489 1488 1488 1479 1481 1483 1484 1482 1479 1481 1486 1490 1499 1504 1510 1515 1519 1522
1536 1535 1534 1531 1528 1526 1523 1519 1516 1512 1509 1507 1505 1502 1500 1496 1495 1494 1496 1497 1500 1501 1501 1501 1499 1499 1492 1486 1486 1486 1481 1479 1481 1481 1482 1479 1481 1487 1490 1499 1505 1510 1514 1518 1521
1534 1533 1532 1529 1526 1523 1520 1517 1513 1510 1507 1504 1503 1501 1499 1495 1496 1495 1497 1499 1500 1501 1500 1500 1499 1499 1498 1490 1487 1485 1485 1481 1479 1478 1479 1482 1480 1484 1487 1497 1503 1509 1512 1516 1520
1531 1531 1529 1528 1525 1521 1518 1513 1509 1506 1503 1502 1501 1500 1495 1493 1496 1497 1498 1499 1500 1500 1500 1500 1501 1499 1495 1489 1488 1488 1485 1484 1471 1475 1477 1481 1479 1475 1485 1494 1500 1505 1509 1513 1517
1528 1528 1528 1526 1523 1519 1515 1510 1506 1503 1501 1500 1500 1499 1489 1491 1494 1495 1497 1498 1499 1500 1501 1501 1501 1498 1495 1492 1491 1484 1488 1483 1469 1472 1470 1476 1476 1472 1482 1489 1494 1502 1505 1509 1513
1526 1525 1525 1524 1521 1516 1512 1507 1502 1499 1498 1497 1497 1500 1491 1488 1491 1494 1496 1497 1498 1499 1500 1500 1497 1492 1488 1487 1493 1483 1484 1471 1473 1468 1473 1473 1469 1469 1480 1485 1488 1495 1501 1505 1508
1523 1523 1522 1521 1519 1515 1510 1507 1503 1500 1499 1492 1490 1486 1486 1488 1492 1493 1494 1495 1495 1497 1492 1493 1490 1486 1476 1475 1470 1463 1467 1471 1459 1459 1471 1472 1471 1464 1473 1482 1484 1486 1494 1499 1503
1520 1520 1520 1518 1516 1514 1513 1511 1511 1511 1498 1489 1487 1488 1488 1488 1487 1489 1492 1493 1491 1490 1488 1486 1486 1472 1471 1470 1473 1473 1477 1470 1459 1459 1470 1470 1470 1464 1465 1473 1478 1481 1486 1491 1496
1516 1518 1518 1517 1514 1513 1513 1511 1509 1508 1500 1479 1480 1481 1484 1488 1483 1484 1489 1487 1485 1483 1479 1478 1469 1471 1476 1480 1484 1479 1477 1474 1471 1466 1471 1472 1471 1467 1464 1467 1470 1476 1479 1482 1487
1513 1514 1515 1515 1515 1513 1511 1511 1509 1507 1491 1470 1474 1476 1480 1482 1481 1478 1483 1484 1480 1477 1473 1476 1469 1476 1479 1481 1477 1481 1469 1471 1468 1471 1490 1472 1492 1465 1465 1468 1468 1470 1474 1476 1477
1510 1511 1512 1513 1511 1512 1511 1509 1507 1506 1487 1460 1466 1472 1472 1476 1472 1478 1480 1480 1475 1474 1476 1474 1472 1479 1480 1475 1472 1477 1466 1469 1472 1475 1477 1471 1479 1465 1452 1465 1464 1467 1466 1467 1470
1506 1508 1509 1511 1510 1511 1509 1507 1507 1499 1484 1458 1461 1466 1469 1470 1468 1472 1477 1480 1475 1472 1475 1469 1473 1474 1474 1471 1472 1473 1474 1476 1474 1474 1487 1473 1471 1463 1461 1455 1457 1459 1461 1460 1458
1502 1504 1506 1506 1508 1508 1506 1506 1498 1484 1455 1458 1457 1457 1461 1466 1465 1471 1474 1477 1477 1487 1481 1473 1473 1472 1470 1471 1472 1475 1480 1492 1496 1490 1487 1459 1465 1457 1448 1446 1449 1450 1453 1451 1451
1499 1500 1501 1502 1506 1505 1505 1500 1497 1457 1455 1452 1453 1454 1456 1456 1460 1464 1469 1472 1471 1468 1466 1472 1479 1468 1469 1470 1470 1474 1475 1482 1493 1480 1465 1441 1463 1449 1437 1442 1448 1451 1449 1449 1450
1495 1497 1498 1501 1502 1502 1503 1491 1476 1459 1455 1460 1455 1457 1456 1452 1455 1461 1463 1464 1461 1467 1475 1469 1471 1464 1467 1468 1468 1467 1472 1463 1473 1465 1470 1453 1436 1433 1436 1440 1446 1448 1446 1445 1447
1493 1496 1495 1496 1498 1500 1497 1485 1466 1467 1470 1467 1460 1450 1455 1455 1461 1460 1461 1457 1459 1463 1465 1465 1476 1465 1467 1469 1466 1467 1459 1478 1472 1497 1494 1461 1452 1446 1434 1438 1439 1439 1438 1439 1448
1490 1491 1487 1493 1495 1496 1485 1474 1469 1469 1474 1469 1457 1452 1445 1450 1453 1457 1457 1463 1463 1468 1469 1467 1472 1469 1467 1471 1464 1467 1470 1469 1466 1468 1478 1474 1455 1432 1438 1439 1441 1443 1441 1441 1448
1485 1482 1484 1489 1491 1482 1475 1471 1472 1471 1473 1470 1467 1459 1450 1446 1451 1451 1457 1459 1469 1467 1473 1468 1472 1476 1465 1455 1458 1461 1464 1462 1473 1478 1467 1469 1465 1433 1437 1441 1444 1445 1444 1444 1453
1479 1476 1484 1486 1478 1470 1469 1466 1471 1471 1468 1468 1466 1463 1460 1456 1457 1452 1461 1472 1474 1470 1468 1472 1476 1482 1473 1461 1462 1468 1463 1464 1468 1476 1482 1480 1464 1436 1441 1444 1442 1442 1446 1451 1457
1476 1470 1478 1482 1474 1468 1463 1469 1470 1471 1467 1468 1465 1466 1463 1459 1456 1459 1468 1475 1475 1476 1479 1479 1473 1476 1500 1496 1481 1475 1469 1464 1469 1485 1470 1461 1454 1446 1446 1447 1451 1449 1451 1453 1455
1470 1461 1462 1467 1468 1469 1466 1464 1464 1467 1470 1470 1469 1464 1462 1463 1460 1460 1467 1475 1476 1480 1479 1478 1482 1472 1470 1468 1470 1470 1469 1465 1468 1466 1475 1463 1459 1451 1450 1450 1452 1454 1456 1456 1456
1467 1463 1464 1460 1462 1467 1468 1464 1462 1462 1464 1465 1469 1464 1463 1463 1458 1460 1464 1470 1472 1477 1476 1480 1483 1478 1480 1468 1465 1471 1465 1465 1464 1462 1461 1459 1459 1459 1460 1460 1457 1456 1459 1455 1464
1469 1467 1466 1459 1465 1464 1461 1463 1463 1462 1465 1462 1465 1463 1465 1464 1463 1460 1462 1467 1471 1474 1479 1482 1480 1484 1485 1467 1469 1481 1468 1464 1466 1466 1467 1471 1469 1471 1469 1466 1466 1464 1463 1467 1472